Orbital Elements at Epoch 2459000.5 (2020-May-31.0) TDB
Reference: JPL 29 (heliocentric ecliptic J2000)
Element | Value | Uncertainty (1-sigma) | Units |
e | .08112826821541265 | 4.2117e-08 | |
a | 3.071026770116287 | 2.0162e-08 | au |
q | 2.821879686613581 | 1.3046e-07 | au |
i | 11.78654479191914 | 5.1182e-06 | deg |
node | 354.1892096565315 | 2.2007e-05 | deg |
peri | 102.1275387958276 | 4.888e-05 | deg |
M | 41.9106689060396 | 3.9131e-05 | deg |
tp | 2458771.652632087321 (2019-Oct-15.15263209) | 0.00021435 | TDB |
period | 1965.72983917926 5.38 | 1.9358e-05 5.3e-08 | d yr |
n | .1831380858268442 | 1.8035e-09 | deg/d |
Q | 3.320173853618993 | 2.1797e-08 | au |
|
| | Orbit Determination Parameters
Additional Information
|